METEOR 2-17 DEB

Satellite information

Favourite Embed

Satellite Type and Status

DEBRISIN ORBIT

Key statistics

Satellite METEOR 2-17 DEB at a glance.

Uptime

13612

Days in orbit

Revolutions

≈ 14.0

Per day

Orbit

LEO

Low Earth Orbit

Inclination

82.5

Latest

Satellite identification and parameters

Extended collection of information and parameters for METEOR 2-17 DEB.

Object identification

Identified? True

Debris? True

Object name: METEOR 2-17 DEB

International designator: 1988-005C

Object number (NORAD): 28988

Object ID (CCSDS): 28988

Country: COMMONWEALTH OF INDEPENDENT STATES (CIS)

Current information (Y/N): Y

RCS size: SMALL

Orbital parameters

Period: 102.841 minutes

Inclination: 82.5305 deg

SMA: 7271.191 km

Apoapsis: 897.649 km

Periapsis: 888.462 km

RAAN: 244.4839 deg

Eccentricy: 0.0006318

Argument of periapsis: 340.6232 deg

Mean anomaly: 19.4696 deg

Mean motion: 14.00214196 rev/day

Mean motion (dot): 0.00003592 rev/day2

B* drag term: 0.0024233 1/REarth

Two-line elements (TLE)

Creation date: May 2, 2025, 2:33 a.m.

Reference frame: TEME

Reference center: EARTH

Epoch: April 29, 2025, 3:22 p.m. UTC

TLE line 0: 0 METEOR 2-17 DEB

TLE line 1: 1 28988U 88005C 25119.64036904 .00003592 00000-0 24233-2 0 9991

TLE line 2: 2 28988 82.5305 244.4839 0006318 340.6232 19.4696 14.00214196555617

Live tracking on map

Real-time ground track for satellite METEOR 2-17 DEB.

In-orbit conjunctions

A list of the most updated potential collisions computed for object METEOR 2-17 DEB.

Target Orbit TCA Probability of collision Miss distance Type
FENGYUN 1C DEB SSO 2025-03-17 11:31:32 0.0003261965 72.0 (m) DEBRIS
FENGYUN 1C DEB SSO 2025-03-04 19:18:34 0.0001018093 311.0 (m) DEBRIS

Associated space launch

Second generation soviet meteorological satellite

METEOR 2-17 DEB was lifted into orbit during the mission ‘Tsiklon-3 | Meteor-2 17’, on board a Tsiklon-3 space rocket.

The launch took place on Jan. 30, 1988, 10:59 a.m. from 32/1.

For more information about the launch, click the button.

Launch to space Tsiklon-3 | Meteor-2 17
Tsiklon-3 | Meteor-2 17

Agency: N/A

Status: Launch Successful

Launch date: Jan. 30, 1988, 10:59 a.m. UTC

Rocket: Tsiklon-3

Launch pad: 32/1

Location: Plesetsk Cosmodrome, Russian Federation

...

Latest news about this satellite

There are no fresh news available about this satellite. Check back as we update our databases every day.


Newsletter sign-up

Weekly statistics, charts and insights to help you stay on top of the space industry.